Location: Erdweis
(48.5167°N, 15.3500°E)
Time: 17:01:57
(UTC+00:00)

Cosmos 2298 Rocket - Pass Details

Date: 18 September 2020
Orbit: 777 x 783 km, 74.0° (Epoch: 30 October)

Event Time Altitude Azimuth Distance (km) Brightness Sun altitude
Rises 18:16:22 0° 177° (S) 3,257 7.1 -12.6°
Reaches altitude 10° 18:18:53 10° 170° (S) 2,334 6.2 -13.0°
Maximum altitude 18:23:45 38° 103° (ESE) 1,176 4.5 -13.7°
Drops below altitude 10° 18:28:39 10° 36° (NE) 2,348 6.3 -14.5°
Sets 18:31:11 0° 29° (NNE) 3,281 7.2 -14.9°
